GW4172 Weather Reports


time (UTC)temp
C
wind
direction
speed
KPH
gust
KPH
rain 1hr
cm
rain 24hr
cm
rain mn
cm
humidity
%
barometer
mb
20260503200303 17 314 12.9 14.5 0.00 0.00 0.00 27 1003.0
20260503195801 17 300 4.8 4.8 0.00 0.00 0.00 27 1002.9
20260503195258 16 276 3.2 3.2 0.00 0.00 0.00 26 1003.2
20260503194755 18 4 12.9 14.5 0.00 0.00 0.00 25 1003.0
20260503194250 17 318 1.6 1.6 0.00 0.00 0.00 29 1003.2
20260503193747 17 321 11.3 14.5 0.00 0.00 0.00 25 1003.0
20260503193243 17 306 4.8 9.7 0.00 0.00 0.00 25 1003.1
20260503192738 17 20 3.2 3.2 0.00 0.00 0.00 29 1003.2
20260503192233 17 288 1.6 1.6 0.00 0.00 0.00 26 1003.2
20260503191731 17 276 3.2 3.2 0.00 0.00 0.00 28 1003.0
20260503191228 17 348 6.4 9.7 0.00 0.00 0.00 28 1002.9
20260503190725 16 354 11.3 12.9 0.00 0.00 0.00 28 1003.3
20260503190221 17 352 4.8 8.0 0.00 0.00 0.00 28 1003.2
20260503185719 17 258 1.6 3.2 0.00 0.00 0.00 28 1003.1
20260503185214 17 236 4.8 4.8 0.00 0.00 0.00 26 1003.2
20260503184709 16 242 6.4 8.0 0.00 0.00 0.00 31 1003.4
20260503184205 16 228 6.4 8.0 0.00 0.00 0.00 33 1003.2
20260503183701 16 315 14.5 22.5 0.00 0.00 0.00 30 1003.5
20260503183159 16 166 6.4 9.7 0.00 0.00 0.00 31 1003.2
20260503182657 16 11 6.4 9.7 0.00 0.00 0.00 30 1003.4
20260503182155 16 305 9.7 14.5 0.00 0.00 0.00 29 1003.5
20260503181652 17 332 8.0 11.3 0.00 0.00 0.00 30 1003.6
20260503181149 17 250 1.6 3.2 0.00 0.00 0.00 35 1003.5
20260503180646 17 280 4.8 4.8 0.00 0.00 0.00 33 1003.5
20260503180144 17 290 1.6 1.6 0.00 0.00 0.00 31 1003.4
20260503175640 17 217 4.8 8.0 0.00 0.00 0.00 29 1003.5
20260503175137 17 277 4.8 4.8 0.00 0.00 0.00 29 1003.5
20260503174634 17 303 3.2 3.2 0.00 0.00 0.00 30 1003.6
20260503174131 17 272 6.4 8.0 0.00 0.00 0.00 27 1003.5
20260503173626 16 343 3.2 4.8 0.00 0.00 0.00 31 1003.6
20260503173123 17 315 4.8 4.8 0.00 0.00 0.00 30 1003.6
20260503172620 17 259 4.8 4.8 0.00 0.00 0.00 32 1003.8
20260503172117 16 285 8.0 11.3 0.00 0.00 0.00 35 1003.7
20260503171614 16 341 3.2 4.8 0.00 0.00 0.00 38 1003.7
20260503171111 16 282 8.0 11.3 0.00 0.00 0.00 39 1003.6
20260503170608 15 288 4.8 4.8 0.00 0.00 0.00 40 1003.6
20260503170104 16 293 1.6 3.2 0.00 0.00 0.00 43 1003.6
20260503151000 15 229 3.2 3.2 0.00 0.00 0.00 52 1003.9
20260503150456 15 220 3.2 4.8 0.00 0.00 0.00 55 1003.9
20260503131343 9 328 1.6 1.6 0.00 0.00 0.00 60 1004.9
20260503130841 8 237 1.6 1.6 0.00 0.00 0.00 63 1005.1
20260503130338 8 146 3.2 3.2 0.00 0.00 0.00 63 1005.1
20260503110732 0 322 1.6 1.6 0.00 0.00 0.00 87 1005.3
20260503110229 0 317 1.6 1.6 0.00 0.00 0.00 86 1005.5
20260503100155 1 311 1.6 3.2 0.00 0.00 0.00 84 1005.9
20260503090115 2 290 0.0 0.0 0.00 0.00 0.00 78 1006.9
20260503081545 3 308 1.6 1.6 0.00 0.00 0.00 78 1007.0
20260503081042 3 309 1.6 1.6 0.00 0.00 0.00 75 1006.8
20260503080538 3 319 1.6 1.6 0.00 0.00 0.00 79 1007.0
20260503072506 5 308 0.0 1.6 0.00 0.00 0.00 70 1007.5
20260503072003 5 305 1.6 1.6 0.00 0.00 0.00 71 1007.6
20260503071500 5 313 1.6 1.6 0.00 0.00 0.00 68 1007.5
20260503070955 5 300 1.6 1.6 0.00 0.00 0.00 73 1007.6
20260503070452 5 308 0.0 0.0 0.00 0.00 0.00 69 1007.7
20260503054911 6 311 1.6 1.6 0.00 0.00 0.00 67 1008.5
20260503054408 6 306 0.0 1.6 0.00 0.00 0.00 66 1008.6
20260503053906 5 288 0.0 0.0 0.00 0.00 0.00 59 1008.7
20260503053403 5 300 0.0 0.0 0.00 0.00 0.00 71 1008.5
20260503052859 5 298 0.0 0.0 0.00 0.00 0.00 67 1008.5
20260503052356 5 314 0.0 1.6 0.00 0.00 0.00 71 1008.5
20260503051853 5 320 1.6 1.6 0.00 0.00 0.00 66 1008.4
20260503051349 5 306 1.6 1.6 0.00 0.00 0.00 70 1008.4
20260503050846 5 316 1.6 1.6 0.00 0.00 0.00 67 1008.6
20260503050342 5 299 1.6 1.6 0.00 0.00 0.00 68 1008.7
20260503045840 5 310 1.6 1.6 0.00 0.00 0.00 72 1008.8
20260503045338 5 312 1.6 1.6 0.00 0.00 0.00 70 1008.6
20260503044834 5 306 1.6 1.6 0.00 0.00 0.00 72 1008.9
20260503044331 5 311 1.6 1.6 0.00 0.00 0.00 71 1009.0
20260503043828 5 312 1.6 1.6 0.00 0.00 0.00 69 1009.5
20260503043325 5 329 3.2 3.2 0.00 0.00 0.00 68 1009.2
20260503042821 5 307 0.0 0.0 0.00 0.00 0.00 66 1009.2
20260503042318 6 308 0.0 0.0 0.00 0.00 0.00 69 1009.5
20260503041814 5 307 0.0 0.0 0.00 0.00 0.00 69 1009.2
20260503041311 5 313 1.6 1.6 0.00 0.00 0.00 65 1009.3
20260503040809 5 307 0.0 0.0 0.00 0.00 0.00 64 1009.3
20260503040306 6 306 1.6 1.6 0.00 0.00 0.00 63 1009.5
20260503035803 6 307 1.6 1.6 0.00 0.00 0.00 65 1009.3
20260503035300 6 301 0.0 1.6 0.00 0.00 0.00 66 1009.5
20260503034757 6 321 1.6 1.6 0.00 0.00 0.00 66 1009.8
20260503034254 6 311 1.6 1.6 0.00 0.00 0.00 60 1009.8
20260503033752 6 298 0.0 1.6 0.00 0.00 0.00 55 1009.9
20260503033249 6 292 0.0 0.0 0.00 0.00 0.00 55 1009.7
20260503032747 6 293 0.0 0.0 0.00 0.00 0.00 60 1010.1
20260503032246 6 317 1.6 1.6 0.00 0.00 0.00 68 1009.6
20260503031743 6 290 0.0 0.0 0.00 0.00 0.00 61 1009.9
20260503031241 6 332 1.6 3.2 0.00 0.00 0.00 64 1010.1
20260503030737 6 307 0.0 0.0 0.00 0.00 0.00 62 1010.1
20260503030233 6 299 0.0 1.6 0.00 0.00 0.00 59 1010.3
20260503025730 6 297 0.0 0.0 0.00 0.00 0.00 53 1010.4
20260503025228 6 306 0.0 0.0 0.00 0.00 0.00 57 1010.3
20260503024724 6 305 0.0 0.0 0.00 0.00 0.00 56 1010.4
20260503024222 6 316 1.6 3.2 0.00 0.00 0.00 55 1010.5
20260503023718 6 309 1.6 1.6 0.00 0.00 0.00 59 1010.3
20260503023215 6 308 1.6 1.6 0.00 0.00 0.00 59 1010.6
20260503022711 5 319 1.6 1.6 0.00 0.00 0.00 63 1010.6
20260503022211 5 306 1.6 1.6 0.00 0.00 0.00 63 1010.7
20260503021708 5 305 0.0 1.6 0.00 0.00 0.00 59 1010.4
20260503021204 5 298 0.0 1.6 0.00 0.00 0.00 60 1010.7
20260503020702 5 297 0.0 0.0 0.00 0.00 0.00 60 1010.4
20260503020159 5 298 0.0 0.0 0.00 0.00 0.00 61 1010.8
20260503015656 5 298 0.0 0.0 0.00 0.00 0.00 59 1010.5
20260503015153 5 292 0.0 0.0 0.00 0.00 0.00 58 1010.6
20260503014649 5 299 0.0 0.0 0.00 0.00 0.00 58 1010.7
20260503014147 5 302 0.0 0.0 0.00 0.00 0.00 59 1010.5
20260503013644 5 298 0.0 0.0 0.00 0.00 0.00 58 1010.6
20260503013142 5 292 0.0 0.0 0.00 0.00 0.00 57 1010.9
20260503012638 5 299 0.0 0.0 0.00 0.00 0.00 56 1010.6
20260503012135 6 306 0.0 0.0 0.00 0.00 0.00 56 1010.8
20260503011632 6 306 0.0 0.0 0.00 0.00 0.00 59 1010.8
20260503011129 6 297 0.0 0.0 0.00 0.00 0.00 57 1010.7
20260503010625 6 290 0.0 0.0 0.00 0.00 0.00 55 1011.0
20260503010123 6 289 0.0 0.0 0.00 0.00 0.00 56 1010.8
20260503005619 6 298 0.0 0.0 0.00 0.00 0.00 55 1010.8
20260503005117 6 298 0.0 0.0 0.00 0.00 0.00 54 1011.2
20260503004613 7 290 0.0 0.0 0.00 0.00 0.00 51 1011.2
20260503004112 7 290 0.0 0.0 0.00 0.00 0.00 50 1011.1
20260503003608 7 290 0.0 0.0 0.00 0.00 0.00 49 1011.1
20260503003105 7 290 0.0 0.0 0.00 0.00 0.00 48 1011.1
20260503002602 7 289 0.0 0.0 0.00 0.00 0.00 48 1011.2
20260503002059 7 281 0.0 0.0 0.00 0.00 0.00 50 1011.5
20260503001555 7 295 0.0 0.0 0.00 0.00 0.00 48 1011.4
20260503001052 7 281 0.0 0.0 0.00 0.00 0.00 47 1011.3
20260503000550 8 166 3.2 3.2 0.00 0.00 0.00 46 1011.3
20260503000047 8 274 0.0 0.0 0.00 0.00 0.00 48 1011.5
20260502235543 8 262 0.0 0.0 0.00 0.00 0.00 46 1011.6
20260502235041 8 288 0.0 0.0 0.00 0.00 0.00 47 1011.7
20260502234537 8 295 0.0 0.0 0.00 0.00 0.00 46 1011.7
20260502234035 8 283 0.0 0.0 0.00 0.00 0.00 48 1011.7
20260502233529 8 285 0.0 0.0 0.00 0.00 0.00 45 1011.9
20260502233027 8 234 1.6 1.6 0.00 0.00 0.00 47 1011.8
20260502232523 8 297 0.0 0.0 0.00 0.00 0.00 47 1011.9
20260502232020 8 299 0.0 0.0 0.00 0.00 0.00 45 1011.9
20260502231517 8 279 0.0 0.0 0.00 0.00 0.00 46 1011.9
20260502231015 8 282 3.2 3.2 0.00 0.00 0.00 44 1012.1
20260502230513 8 157 4.8 4.8 0.00 0.00 0.00 45 1011.8
20260502230011 8 283 0.0 1.6 0.00 0.00 0.00 45 1011.9
20260502225511 8 222 1.6 3.2 0.00 0.00 0.00 45 1012.2
20260502225009 9 287 0.0 0.0 0.00 0.00 0.00 46 1012.3
20260502224505 9 262 0.0 1.6 0.00 0.00 0.00 46 1012.2
20260502224002 10 256 1.6 1.6 0.00 0.00 0.00 44 1012.1
20260502223500 10 290 0.0 0.0 0.00 0.00 0.00 45 1012.5
20260502222958 10 269 0.0 1.6 0.00 0.00 0.00 45 1012.5
20260502222455 8 254 1.6 1.6 0.00 0.00 0.00 47 1012.4
20260502221950 9 179 3.2 3.2 0.00 0.00 0.00 46 1012.6
20260502221447 8 148 1.6 3.2 0.00 0.00 0.00 48 1012.7
20260502220944 9 282 0.0 1.6 0.00 0.00 0.00 47 1012.7
20260502220440 8 176 1.6 3.2 0.00 0.00 0.00 47 1012.8
20260502215937 9 173 4.8 4.8 0.00 0.00 0.00 47 1012.8
20260502215434 10 135 6.4 8.0 0.00 0.00 0.00 46 1012.8
20260502214931 10 204 1.6 1.6 0.00 0.00 0.00 45 1012.9
20260502214428 10 240 1.6 1.6 0.00 0.00 0.00 45 1012.8
20260502213925 10 251 1.6 1.6 0.00 0.00 0.00 47 1012.8
20260502213421 9 292 0.0 1.6 0.00 0.00 0.00 48 1013.3
20260502212920 10 293 1.6 3.2 0.00 0.00 0.00 47 1013.2
20260502212419 10 130 1.6 3.2 0.00 0.00 0.00 48 1013.2
20260502211916 10 240 1.6 1.6 0.00 0.00 0.00 47 1013.1
20260502211411 10 167 1.6 3.2 0.00 0.00 0.00 47 1013.2
20260502210909 10 244 1.6 3.2 0.00 0.00 0.00 48 1013.4
20260502210405 9 217 4.8 4.8 0.00 0.00 0.00 47 1013.3
20260502205903 10 286 1.6 1.6 0.00 0.00 0.00 49 1013.5
20260502205358 8 278 1.6 1.6 0.00 0.00 0.00 53 1013.6
20260502204856 9 174 3.2 3.2 0.00 0.00 0.00 52 1013.5
20260502204353 8 291 3.2 4.8 0.00 0.00 0.00 54 1013.6
20260502203850 8 288 3.2 4.8 0.00 0.00 0.00 57 1013.9
20260502203348 9 230 1.6 1.6 0.00 0.00 0.00 54 1013.6
20260502202843 9 260 3.2 3.2 0.00 0.00 0.00 52 1014.0
20260502202341 8 177 6.4 8.0 0.00 0.00 0.00 55 1013.8
20260502201839 8 182 1.6 3.2 0.00 0.00 0.00 52 1013.7
20260502201334 8 278 1.6 1.6 0.00 0.00 0.00 53 1013.9
20260502200831 8 141 6.4 8.0 0.00 0.00 0.00 55 1014.3